Погода в Федове

Россия / Архангельская область     62°23′31″N   39°49′40″E
темп.,
°C
ветер,
м/с
пор.,
м/с
влажн.,
%
обл.,
%
осадки,
мм/ч
давл.,
гПа
погр.,
м
25 июля, вс
вс2500:00+12зюз3966100 0.0 1012308
03:00+11зюз2970100 0.0 1012290
06:00+12з276977 0.0 1013259
09:00+18з34427 0.0 10131197
12:00+17зсз3648100 0.0 1014850
15:00+20зсз3840100 0.0 10142465
18:00+17ю116219 0.0 101428
21:00+14з2267100 0.0 101439
26 июля, пн
пн2600:00+13зюз2481100 0.1 101699
03:00+11з22955 0.1 101634
06:00+13з2579100 0.0 1016166
09:00+15з2779100 0.2 1016373
12:00+15зсз368743 1.0 1017618
15:00+21сз494993 1.8 10162123
18:00+19ссз5114843 0.1 10171934
21:00+13ссз266917 0.1 1019161
27 июля, вт
вт2700:00+7ссв22781 0.0 102128
03:00+5ссз11830 0.0 102213
06:00+9сз13660 0.0 1022153
09:00+15сз23460 0.0 1021867
12:00+19ссз34375 0.0 10201708
15:00+21ссз35325 0.0 10182098
18:00+21ссз363447 0.0 10171864
21:00+13ссз225710 0.0 101728
28 июля, ср
ср2800:00+9ссз117054 0.0 101810
03:00+8сз11773 0.0 101710
06:00+12ююз125995 0.0 101588
09:00+19юз364392 0.0 1012609
12:00+25з593969 0.0 10091990
15:00+25з3746100 0.0 10071212
18:00+25зсз2546100 0.0 10051273
21:00+17з278247 0.6 1006127
29 июля, чт
чт2900:00+15св129661 0.7 100548
03:00+13вюв11985 1.1 100413
06:00+15вюв129637 1.4 1003102
09:00+19ююв227898 1.9 1002435
12:00+26юз354698 0.0 10001355
15:00+24юз3753100 0.1 998339
18:00+22юз266488 1.6 997987
21:00+17зюз41094100 2.9 998422